Date String (YYYY-MM-DD hh:mm:ss) UTC,Instrument flags,Ambient pressure (hPa),Sample flow (lpm),Bypass flow (lpm),Sample temperature (°C),Ambient temperature (°C),ASC tube jacket temperature (°C),LED temperature (°C),Box temperature (°C),Sample RH (%),Span deviation,Mass concentration (μg/m³),Mass concentration (μg/m³),Mass concentration (μg/m³)
DateTimeUTC,F1_M11,P_M11,Q1_M11,Q2_M11,T1_M11,T2_M11,T3_M11,T4_M11,T5_M11,U1_M11,ZSPAN_M11,X2_M11,X0_M11,X1_M11
2021-09-12 01:00:00,,0827.2,5.00,0.00,28.8,25.7,00.0,37.9,30.3,17.8,0001.8,0007.09,0014.16,0006.20
2021-09-12 01:01:00,,0827.2,5.01,0.00,28.8,26.2,00.0,37.9,30.4,17.5,0002.3,0007.08,0014.21,0006.21
2021-09-12 01:02:00,,0827.3,4.98,0.00,28.8,26.6,00.0,37.9,30.5,16.2,0002.1,0007.11,0014.44,0006.21
2021-09-12 01:03:00,,0827.3,5.00,0.00,28.8,27.1,00.0,37.9,30.6,17.1,0001.8,0007.10,0014.34,0006.22
2021-09-12 01:04:00,,0827.3,5.00,0.00,28.9,27.5,00.0,37.9,30.8,17.1,0001.5,0007.11,0014.20,0006.24
2021-09-12 01:05:00,,0827.3,4.99,0.00,28.9,27.8,00.0,37.9,30.9,17.1,0001.0,0007.09,0013.83,0006.25
2021-09-12 01:06:00,,0827.4,5.01,0.00,29.0,28.0,00.0,37.9,31.0,17.4,0000.9,0007.10,0013.65,0006.28
2021-09-12 01:07:00,,0827.4,4.99,0.00,29.1,28.2,00.0,37.9,31.0,17.4,0001.0,0007.12,0012.96,0006.31
2021-09-12 01:08:00,,0827.4,4.99,0.00,29.1,28.3,00.0,38.0,31.1,17.2,0001.5,0007.19,0013.00,0006.33
2021-09-12 01:09:00,,0827.4,5.01,0.00,29.1,27.0,00.0,38.0,30.7,17.3,0001.5,0007.23,0012.49,0006.35
2021-09-12 01:10:00,,0827.4,5.00,0.00,28.9,25.5,00.0,38.0,30.3,18.5,0001.5,0007.25,0012.11,0006.36
2021-09-12 01:11:00,,0827.4,4.99,0.00,28.9,25.6,00.0,38.0,30.3,18.9,0001.2,0007.28,0013.01,0006.38
2021-09-12 01:12:00,,0827.4,5.00,0.00,28.8,26.1,00.0,37.9,30.5,19.3,0000.8,0007.36,0013.14,0006.43
2021-09-12 01:13:00,,0827.5,5.01,0.00,28.8,26.5,00.0,37.9,30.5,19.9,0001.0,0007.43,0013.14,0006.52
2021-09-12 01:14:00,,0827.6,4.99,0.00,28.9,27.0,00.0,37.9,30.7,20.1,0001.4,0007.53,0014.04,0006.58
2021-09-12 01:15:00,,0827.6,5.01,0.00,28.9,27.4,00.0,37.9,30.8,20.6,0001.4,0007.59,0014.42,0006.60
2021-09-12 01:16:00,,0827.6,4.99,0.00,29.0,27.7,00.0,37.9,30.9,21.0,0001.5,0007.68,0015.02,0006.64
2021-09-12 01:17:00,,0827.6,5.01,0.00,29.0,28.0,00.0,37.9,30.9,21.0,0001.7,0007.75,0014.80,0006.67
2021-09-12 01:18:00,,0827.7,5.00,0.00,29.1,28.2,00.0,38.0,31.0,21.0,0001.9,0007.78,0015.36,0006.68
2021-09-12 01:19:00,,0827.7,5.00,0.00,29.1,28.4,00.0,38.0,31.1,21.0,0001.6,0007.77,0015.56,0006.68
2021-09-12 01:20:00,,0827.7,5.00,0.00,29.2,28.2,00.0,38.0,31.1,21.0,0001.5,0007.77,0016.01,0006.68
2021-09-12 01:21:00,,0827.7,5.00,0.00,29.1,26.5,00.0,38.0,30.6,21.2,0001.2,0007.80,0016.37,0006.69
2021-09-12 01:22:00,,0827.7,5.00,0.00,28.9,25.3,00.0,38.0,30.2,21.5,0001.5,0007.85,0015.91,0006.67
2021-09-12 01:23:00,,0827.8,5.01,0.00,28.8,25.7,00.0,38.0,30.3,21.7,0000.8,0007.85,0017.18,0006.63
2021-09-12 01:24:00,,0827.9,5.00,0.00,28.8,26.1,00.0,38.0,30.4,21.9,0000.4,0007.83,0017.66,0006.58
2021-09-12 01:25:00,,0827.9,5.00,0.00,28.8,26.6,00.0,37.9,30.5,22.0,-000.0,0007.84,0018.13,0006.53
2021-09-12 01:26:00,,0828.0,4.99,0.00,28.9,27.1,00.0,37.9,30.7,21.8,0000.3,0007.81,0018.80,0006.49
2021-09-12 01:27:00,,0827.9,5.00,0.00,28.9,27.4,00.0,37.9,30.8,21.7,0000.3,0007.74,0019.35,0006.42
2021-09-12 01:28:00,,0828.0,5.00,0.00,29.0,27.7,00.0,38.0,30.9,21.7,0000.3,0007.71,0019.52,0006.37
2021-09-12 01:29:00,,0828.0,5.00,0.00,29.0,28.0,00.0,38.0,31.0,21.8,0000.8,0007.66,0019.11,0006.33
2021-09-12 01:30:00,,0828.1,5.01,0.00,29.1,28.2,00.0,38.0,31.0,21.8,0000.9,0007.62,0019.11,0006.27
2021-09-12 01:31:00,,0828.1,5.00,0.00,29.2,28.4,00.0,38.0,31.1,21.7,0001.2,0007.57,0019.30,0006.23
2021-09-12 01:32:00,,0828.2,5.00,0.00,29.2,28.4,00.0,38.1,31.2,21.5,0001.3,0007.54,0019.07,0006.19
2021-09-12 01:33:00,,0828.2,5.00,0.00,29.2,27.0,00.0,38.1,30.8,21.6,0001.3,0007.50,0019.06,0006.14
2021-09-12 01:34:00,,0828.2,5.00,0.00,29.0,25.4,00.0,38.1,30.3,21.6,0001.7,0007.40,0017.75,0006.10
2021-09-12 01:35:00,,0828.2,5.01,0.00,28.9,25.5,00.0,38.0,30.3,21.7,0002.2,0007.34,0017.28,0006.05
2021-09-12 01:36:00,,0828.2,5.00,0.00,28.9,26.0,00.0,38.0,30.4,21.4,0002.6,0007.25,0016.15,0006.00
2021-09-12 01:37:00,,0828.2,5.00,0.00,28.8,26.5,00.0,38.0,30.5,21.3,0002.7,0007.16,0015.73,0005.94
2021-09-12 01:38:00,,0828.3,4.99,0.00,28.9,26.9,00.0,38.0,30.7,21.1,0002.8,0007.06,0015.56,0005.89
2021-09-12 01:39:00,,0828.3,4.99,0.00,28.9,27.3,00.0,38.0,30.8,21.1,0002.8,0006.99,0015.93,0005.85
2021-09-12 01:40:00,,0828.3,5.01,0.00,29.0,27.6,00.0,38.0,30.9,21.0,0002.2,0006.92,0016.59,0005.80
2021-09-12 01:41:00,,0828.3,4.99,0.00,29.0,27.9,00.0,38.0,31.0,21.2,0001.9,0006.90,0016.81,0005.76
2021-09-12 01:42:00,,0828.3,4.99,0.00,29.1,28.1,00.0,38.0,31.0,21.5,0002.0,0006.86,0016.05,0005.75
2021-09-12 01:43:00,,0828.4,5.01,0.00,29.2,28.3,00.0,38.1,31.1,21.5,0002.3,0006.84,0016.04,0005.72
2021-09-12 01:44:00,,0828.4,4.99,0.00,29.2,28.5,00.0,38.1,31.2,21.5,0002.5,0006.80,0016.25,0005.69
2021-09-12 01:45:00,,0828.5,5.01,0.00,29.2,27.5,00.0,38.1,30.9,21.5,0002.5,0006.81,0016.70,0005.68
2021-09-12 01:46:00,,0828.5,5.00,0.00,29.1,25.7,00.0,38.1,30.4,21.6,0002.7,0006.78,0016.72,0005.68
2021-09-12 01:47:00,,0828.5,5.00,0.00,28.9,25.4,00.0,38.1,30.3,21.8,0002.4,0006.77,0016.55,0005.69
2021-09-12 01:48:00,,0828.8,5.01,0.00,28.9,25.9,00.0,38.0,30.4,21.9,0002.1,0006.83,0016.26,0005.72
2021-09-12 01:49:00,,0829.2,5.00,0.00,28.8,26.3,00.0,38.0,30.5,22.0,0002.2,0006.92,0015.80,0005.75
2021-09-12 01:50:00,,0829.1,5.01,0.00,28.9,26.8,00.0,38.0,30.6,22.0,0002.7,0007.00,0015.17,0005.78
2021-09-12 01:51:00,,0828.8,5.00,0.00,28.9,27.2,00.0,38.0,30.8,22.1,0002.9,0007.07,0014.40,0005.81
2021-09-12 01:52:00,,0828.7,5.00,0.00,29.0,27.5,00.0,38.0,30.8,22.1,0003.1,0007.07,0014.10,0005.82
2021-09-12 01:53:00,,0829.1,5.01,0.00,29.0,27.8,00.0,38.0,30.9,22.1,0002.6,0007.10,0014.24,0005.82
2021-09-12 01:54:00,,0829.0,4.99,0.00,29.1,28.0,00.0,38.0,31.0,22.5,0002.4,0007.10,0014.32,0005.85
2021-09-12 01:55:00,,0828.7,5.00,0.00,29.1,28.2,00.0,38.1,31.1,22.5,0002.4,0007.10,0014.38,0005.88
2021-09-12 01:56:00,,0829.2,5.00,0.00,29.2,28.4,00.0,38.1,31.1,22.7,0002.3,0007.16,0014.91,0005.90
2021-09-12 01:57:00,,0829.2,5.01,0.00,29.3,28.5,00.0,38.1,31.2,22.3,0001.9,0007.22,0015.05,0005.92
2021-09-12 01:58:00,,0829.0,5.00,0.00,29.2,27.2,00.0,38.1,30.9,22.2,0002.0,0007.29,0014.99,0005.95
2021-09-12 01:59:00,,0828.9,4.99,0.00,29.1,25.6,00.0,38.1,30.3,22.4,0002.2,0007.35,0015.30,0005.98
